Air Force Academy, CO

2:56 AM MDT on September 23, 2019 (GMT -0600)
Usaf Academy

Weather History for KAFF - August, 2019

Change the Weather History Date:

Monday, August 19, 2019

  Actual Average Record
Temperature  
Mean Temperature 71 °F -  
Max Temperature 90 °F 77 °F 90 °F (2019)
Min Temperature 52 °F 50 °F 46 °F (2004)
Cooling Degree Days 6    
Growing Degree Days 21 (Base 50)    
Moisture  
Dew Point 38 °F    
Average Humidity 41    
Maximum Humidity 77    
Minimum Humidity 11    
Precipitation  
Precipitation 0.00 in - - ()
Sea Level Pressure  
Sea Level Pressure 29.89 in    
Wind  
Wind Speed 8 mph (NNE)    
Max Wind Speed 17 mph    
Max Gust Speed 22 mph    
Visibility 10 miles    
Events      
Averages and records for this station are not official NWS values.
T = Trace of Precipitation, MM = Missing Value Source: NWS Daily Summary

Daily Weather History Graph

Daily Weather History Graph

Search for Another Location

Airport or City:

Astronomy

Aug. 19, 2019 Rise Set
Actual Time 6:16 AM MDT 7:48 PM MDT
Civil Twilight 5:47 AM MDT 8:17 PM MDT
Nautical Twilight 5:13 AM MDT 8:50 PM MDT
Astronomical Twilight 4:37 AM MDT 9:26 PM MDT
Moon 10:13 PM MDT (8/19) 9:58 AM MDT (8/19)
Length of Visible Light 14h 29m
Length of Day
13h 32m
Waning Gibbous, 85% of the Moon is Illuminated
Aug 19
Waning Gibbous
Aug 23
Last Quarter
Aug 30
New
Sep 5
First Quarter
Sep 13
Full

Hourly Weather History & Observations

Time (MDT) Temp. Dew Point Humidity Pressure Visibility Wind Dir Wind Speed Gust Speed Precip Events Conditions
12:58 AM 56.7 °F 45.9 °F 67% 29.88 in 10.0 mi North 4.6 mph - N/A   Clear
1:58 AM 56.7 °F 45.9 °F 67% 29.88 in 10.0 mi North 10.4 mph - N/A   Clear
2:58 AM 54.0 °F 45.5 °F 73% 29.88 in 10.0 mi North 9.2 mph - N/A   Clear
3:58 AM 53.4 °F 45.0 °F 73% 29.88 in 10.0 mi North 8.1 mph - N/A   Clear
4:58 AM 52.2 °F 45.1 °F 77% 29.88 in 10.0 mi North 6.9 mph - N/A   Clear
5:58 AM 52.5 °F 45.5 °F 77% 29.91 in 10.0 mi North 10.4 mph - N/A   Clear
6:58 AM 54.0 °F 46.9 °F 77% 29.92 in 10.0 mi North 6.9 mph - N/A   Clear
7:58 AM 63.7 °F 46.8 °F 54% 29.91 in 10.0 mi North 6.9 mph - N/A   Clear
8:58 AM 74.5 °F 43.5 °F 33% 29.90 in 10.0 mi NNW 9.2 mph - N/A   Clear
9:58 AM 80.1 °F 37.8 °F 22% 29.92 in 10.0 mi North 11.5 mph - N/A   Clear
10:58 AM 85.3 °F 30.7 °F 14% 29.90 in 10.0 mi North 10.4 mph - N/A   Clear
1:58 PM 88.9 °F 31.6 °F 13% 29.90 in 10.0 mi SE 10.4 mph - N/A   Scattered Clouds
2:58 PM 90.3 °F 30.7 °F 12% 29.88 in 10.0 mi SSE 17.3 mph 21.9 mph N/A   Scattered Clouds
3:58 PM 89.2 °F 27.9 °F 11% 29.88 in 10.0 mi ESE 6.9 mph 17.3 mph N/A   Scattered Clouds
4:58 PM 90.0 °F 28.4 °F 11% 29.86 in 10.0 mi SE 12.7 mph - N/A   Scattered Clouds
5:58 PM 88.5 °F 27.3 °F 11% 29.86 in 10.0 mi SSE 9.2 mph - N/A   Partly Cloudy
7:58 PM 79.3 °F 30.7 °F 17% 29.86 in 10.0 mi Calm Calm - N/A   Clear
9:58 PM 65.5 °F 34.9 °F 32% 29.90 in 10.0 mi North 9.2 mph - N/A   Mostly Cloudy
10:58 PM 61.5 °F 36.3 °F 39% 29.91 in 10.0 mi North 6.9 mph - N/A   Partly Cloudy
11:58 PM 58.8 °F 37.0 °F 44% 29.92 in 10.0 mi North 10.4 mph - N/A   Clear